Regional Weather Roundup
Issued by NWS

Home | Current Version | Previous Version | Graphics & Text | Print | Product List | Glossary On
Versions: 1 2 3 4 5 6 7 8 9 10 11 12 13 14 15 16 17 18 19 20 21 22 23 24 25 26 27 28 29 30 31 32 33 34 35 36 37 38 39 40 41 42 43 44 45 46 47 48 49 50
000
ASUS45 KTFX 010204
RWRMT
MONTANA HOURLY WEATHER ROUNDUP
NATIONAL WEATHER SERVICE GREAT FALLS MT
804 PM MDT SUN AUG 31 2014

NOTE: "FAIR" INDICATES FEW OR NO CLOUDS BELOW 12000 FEET WITH NO
SIGNIFICANT WEATHER AND/OR OBSTRUCTIONS TO VISIBILITY.

* THESE STATIONS ARE NOT UNDER NWS QUALITY CONTROL. THEY DO NOT
   REPORT WEATHER SUCH AS PRECIPITATION OR FOG.

MTZ001>007-043-010300-
WEST OF THE DIVIDE
CITY           SKY/WX    TMP DP  RH WIND       PRES   REMARKS
KALISPELL      CLOUDY    55  50  83 CALM      29.95S
MISSOULA       CLOUDY    61  41  48 NW15      29.99R
BUTTE          PTCLDY    55  36  49 N9        30.00R
MULLAN PASS    CLOUDY    45  41  86 SW6       30.05S
* LINCOLN      N/A       56  40  55 SW4G10     N/A
* LOOKOUT PASS N/A       53  43  69 SE3G9      N/A
* POLSON       N/A       56  44  64 S2         N/A
* RONAN APT    MOCLDY    59  48  67 N/A        N/A
* SEELEY LAKE  N/A       56  46  69 W4G9       N/A
* THOMP F APT  CLOUDY    55  45  69 S1G7       N/A
$$

MTZ008-052>055-010300-
SOUTHWEST MONTANA
CITY           SKY/WX    TMP DP  RH WIND       PRES   REMARKS
BOZEMAN        MOCLDY    55  46  72 N7        29.94R
DILLON         PTCLDY    59  39  48 SW7       29.94S
W YELLOWSTONE  MOCLDY    48  43  83 SW8       30.05S
* THREE FORKS  MOCLDY    61  61 100 N/A        N/A
* BOULDER HILL N/A       55  31  40 VRB2       N/A
* MONIDA PASS  N/A       53  41  64 S10        N/A
* RAYNOLDS PAS N/A       49  30  48 SE13G18    N/A
* WHITEHALL    N/A       68  38  33 NW9G15     N/A
* WISE RIVER   N/A       58  32  37 NW9G16     N/A
$$

MTZ009>010-012-014-046-048-049-054-010300-
EAST SLOPES AND CENTRAL MONTANA
CITY           SKY/WX    TMP DP  RH WIND       PRES   REMARKS
CUT BANK       PTCLDY    57  39  51 W21       29.88R
GREAT FALLS    CLOUDY    61  39  44 W12       29.89R
HELENA         MOCLDY    64  37  37 W9        29.94R
MALMSTROM AFB  CLOUDY    63  37  38 W18       29.91R
* CONRAD       PTCLDY    61  41  48 SW11G20    N/A
* EAST GLACIER N/A       49  42  77 NW10       N/A
* MONARCH      N/A       47  43  86 S6         N/A
* PENDROY      N/A       55  36  49 W9G14      N/A
* ROGERS PASS  N/A       54  36  51 SE2G11     N/A
* SAINT MARY   N/A       51  42  71 S5G13      N/A
* SWEET GRASS  N/A       59  37  44 W17G24     N/A
$$

MTZ011-013-016-021-035-040-045-047-050-051-010300-
NORTH CENTRAL MONTANA
CITY           SKY/WX    TMP DP  RH WIND       PRES   REMARKS
HAVRE          PTCLDY    66  37  34 NW8       29.80R
LEWISTOWN      CLOUDY    59  43  56 W10       29.90S
* CHESTER      N/A       66  34  31 NW11G19    N/A
* DENTON       N/A       60  38  44 SW12       N/A
* GEYSER       N/A       54  43  67 SW17G22    N/A
* JUDITH GAP   N/A       55  44  67 NW6G11     N/A
* LOMA         N/A       66  41  40 W8         N/A
$$

MTZ017>020-022>027-061-062-010300-
NORTHEAST MONTANA
CITY           SKY/WX    TMP DP  RH WIND       PRES   REMARKS
GLASGOW        PTCLDY    64  48  56 SW5       29.74S
GLENDIVE       CLEAR     61  46  58 W7        29.79S
JORDAN         CLEAR     63  48  58 NW3       29.79R
SIDNEY         PTCLDY    59  52  78 CALM      29.76S
WOLF POINT     CLEAR     66  45  47 W7        29.73R
* BEAVER HILL  N/A       60  44  56 W6         N/A
* CIRCLE       N/A       67  46  47 N/A        N/A
* LINDSAY DVD  N/A       58  46  65 W2         N/A
* NAVAJO       N/A       56  51  83 E2         N/A
$$

MTZ028>042-056>058-010300-
SOUTHCENTRAL AND SOUTHEAST MONTANA
CITY           SKY/WX    TMP DP  RH WIND       PRES   REMARKS
BAKER          PTCLDY    55  52  90 S12       29.82S
BILLINGS       MOCLDY    63  46  54 SW8       29.91R
LIVINGSTON     PTCLDY    54  46  74 W5        29.95S
MILES CITY     CLEAR     64  39  40 NW6       29.81R
* LAUREL APT   PTCLDY    61  46  58 S6         N/A
* ROUNDUP APT  PTCLDY    63  43  48 SW23G33    N/A
* ALZADA       N/A       54  50  86 NE9        N/A
* HYSHAM       N/A       64  36  35 NW2        N/A
* LAME DEER    N/A       61  42  50 N1         N/A
* REED POINT   N/A       62  40  45 W3         N/A
* ROSCOE HILL  N/A       56  35  45 SE4        N/A
$$

REGIONAL REPORTS...DAKOTAS
CITY           SKY/WX    TMP DP  RH WIND       PRES   REMARKS
WILLISTON      MOCLDY    59  54  84 N6        29.75S
DICKINSON      LGT RAIN  61  52  72 SW15      29.74R
BEACH          N/A       59  50  72 N5        29.80R
CROSBY         PTCLDY    55  55 100 SW8       29.73S
TIOGA          CLEAR     54  54 100 CALM      29.78R
WATFORD CITY   PTCLDY    57  55  93 SE3       29.75R
BISMARCK       CLOUDY    63  59  87 SE3       29.71S
GRAND FORKS    PTCLDY    63  57  81 W8        29.59S
FARGO          PTCLDY    64  61  90 W6        29.61R
BUFFALO SD     CLOUDY    54  52  93 SE8       29.79F
RAPID CITY     MOCLDY    54  54 100 NW5       29.83S
$$

REGIONAL REPORTS...WYOMING/IDAHO/WASHINGTON
CITY           SKY/WX    TMP DP  RH WIND       PRES   REMARKS
GILLETTE       PTCLDY    55  50  83 SW8       29.91R
SHERIDAN       CLOUDY    63  43  48 W10       29.90S
CODY           PTCLDY   N/A N/A N/A N/A        N/A
YELLOWSTONE LA MOCLDY    45  37  74 CALM      30.14S
SALMON         PTCLDY    64  45  50 CALM      29.90R
MULLAN PASS    CLOUDY    45  41  86 SW6       30.05S
SAND POINT     CLOUDY    61  52  72 N5        29.94S
SPOKANE        MOCLDY    66  37  34 SW16      29.94S

$$




USA.gov is the U.S. government's official web portal to all federal, state and local government web resources and services.